Theta_e
315 316 316 315 315 315 315 315 315 315 315 315 315 316 317 319 320 322 324 336 336 341 348 342 343 342 343 345 344 344 351 358 353 346 344 346 348 348 347 345 346 344 345 345 347
316 316 316 315 315 314 314 315 315 315 315 315 315 316 317 319 321 327 325 332 331 335 348 342 344 341 341 344 347 348 353 353 348 343 343 345 347 347 348 347 344 345 343 346 346
316 316 316 314 314 314 314 315 315 316 316 315 315 315 316 318 324 335 333 329 330 329 347 341 343 345 345 344 350 350 354 346 348 344 343 344 345 347 347 347 345 344 345 345 345
316 316 315 314 313 313 314 315 315 316 316 315 315 315 316 318 335 332 326 329 327 339 350 347 343 345 345 348 350 352 347 343 348 344 345 344 344 348 347 347 345 345 344 343 344
316 316 316 314 313 313 314 315 315 316 316 316 315 315 316 318 321 329 332 328 329 343 354 352 347 349 345 346 348 349 345 346 345 343 345 345 347 347 346 345 344 345 344 342 343
316 317 317 317 316 315 315 315 316 316 316 315 315 315 316 318 325 333 336 329 331 341 351 353 356 355 348 346 348 349 346 342 345 343 346 347 346 345 345 343 343 343 343 342 343
316 317 319 322 322 321 319 317 316 316 316 315 315 315 316 320 337 339 339 338 329 334 344 351 354 355 345 342 344 341 342 343 343 346 345 341 345 347 343 342 341 340 341 343 343
316 317 320 322 322 322 320 317 316 316 316 315 315 315 317 324 330 326 330 341 342 341 345 345 347 348 344 341 342 344 341 346 343 344 346 342 348 343 341 340 339 339 340 341 341
317 317 321 322 322 323 325 321 316 315 315 315 316 315 320 326 326 326 331 339 340 342 343 344 345 344 341 336 334 339 342 343 345 342 346 346 350 342 340 340 339 338 337 337 336
319 317 321 321 321 323 323 326 325 317 315 317 327 327 326 326 326 326 325 331 334 340 337 339 340 335 330 332 337 342 342 342 342 342 345 348 351 347 341 341 341 340 339 336 335
320 317 320 321 321 324 327 327 332 326 318 324 324 325 326 326 326 326 328 329 332 337 332 332 328 327 329 331 335 336 340 341 340 343 346 350 350 348 347 342 340 339 339 339 336
320 317 320 321 322 325 326 328 328 330 328 330 330 328 327 326 325 326 330 337 336 332 328 325 325 327 327 327 326 334 339 340 338 340 345 351 346 341 342 341 343 340 340 340 340
320 317 319 320 321 324 328 329 330 329 327 329 325 326 324 325 325 326 332 335 332 330 328 325 327 326 325 324 323 321 323 324 337 347 348 346 346 347 348 343 343 346 341 342 342
321 318 319 321 326 330 330 330 330 330 323 326 324 324 324 324 324 325 329 333 329 329 327 324 324 324 324 325 322 322 324 325 327 325 347 345 346 341 343 345 346 340 344 343 342
321 319 319 322 327 327 331 331 331 329 331 329 323 326 326 325 326 325 327 330 327 325 323 322 323 324 325 325 324 322 324 324 327 324 322 337 341 340 339 341 338 340 340 345 343
322 319 320 321 323 330 332 332 333 326 332 323 324 324 324 324 325 326 328 327 325 323 321 320 323 325 324 325 325 324 324 322 321 320 322 324 337 338 339 340 336 337 339 343 345
323 323 323 323 329 330 331 332 329 332 331 325 322 322 322 323 323 323 322 322 320 322 320 321 322 322 326 324 324 322 320 322 324 324 323 332 330 333 334 337 337 335 338 346 346
323 325 328 329 329 329 330 328 336 335 327 326 324 322 322 322 321 322 322 320 320 320 319 324 324 324 325 325 326 326 322 321 326 324 325 327 333 331 333 337 337 336 346 348 345
322 326 330 334 333 331 330 330 332 330 326 326 326 327 324 324 323 322 319 319 320 321 324 324 326 326 327 328 325 327 325 322 320 320 329 329 331 333 332 337 343 349 351 351 350
323 326 330 334 335 332 327 329 331 331 328 325 328 329 328 324 326 326 326 328 328 326 324 327 328 327 327 327 327 326 325 323 317 323 330 333 338 334 342 343 345 348 349 350 347
324 331 335 336 336 333 327 326 329 331 330 328 327 328 328 328 328 328 329 330 329 328 326 326 325 327 324 325 326 325 323 318 317 320 327 335 335 332 339 343 346 347 349 350 347
325 321 334 333 330 324 324 328 331 330 330 329 328 327 328 327 328 330 330 330 330 329 329 326 321 323 323 322 326 326 323 317 322 325 320 326 333 332 340 344 347 349 346 348 347
327 328 330 333 327 323 323 326 328 327 328 328 329 328 328 329 329 328 330 329 330 328 327 325 322 320 320 320 324 325 325 324 318 316 323 326 332 334 336 335 347 348 341 343 348
331 331 333 333 331 328 326 328 328 330 329 328 328 328 327 328 327 329 329 328 329 327 327 325 318 319 319 321 322 326 326 325 319 321 319 323 331 332 338 336 335 344 342 343 342
333 329 329 327 326 326 326 327 328 328 328 329 329 329 328 329 327 329 327 328 327 329 327 322 325 325 324 322 327 327 327 326 326 323 325 322 322 321 326 335 335 344 348 343 341
331 330 329 329 330 324 323 326 330 331 330 329 329 329 328 329 329 329 327 326 328 327 324 319 324 326 325 326 325 329 327 327 327 327 325 323 327 332 344 343 345 342 345 342 342
322 324 330 328 326 327 326 329 331 330 330 330 329 327 328 329 330 330 329 327 326 326 323 322 321 322 324 325 326 326 327 328 327 324 327 337 334 338 340 342 346 347 346 350 350
Wind_Speed
16 15 14 13 13 13 12 12 11 11 12 12 11 10 9 9 10 13 7 11 17 19 20 19 16 14 8 8 7 7 3 3 4 4 1 14 14 20 18 25 9 17 21 38 38
16 16 16 15 13 12 11 11 10 11 10 11 11 9 8 10 10 7 8 15 9 15 26 26 18 13 5 6 2 7 4 9 26 3 5 13 18 17 10 20 6 10 15 47 39
17 17 16 15 13 11 9 9 8 9 9 10 9 8 6 7 5 6 10 12 10 10 18 11 17 11 8 7 3 6 7 20 26 14 17 14 13 11 21 5 12 29 40 45 39
18 17 16 14 11 10 8 7 6 7 8 7 7 6 4 2 5 8 6 13 14 17 24 15 22 5 3 6 13 11 11 7 12 23 19 7 14 9 10 8 18 29 52 46 41
17 15 15 13 11 9 7 5 5 5 6 5 6 4 2 3 7 1 4 12 21 21 23 20 19 8 4 8 17 7 8 16 15 28 23 6 12 9 15 22 26 38 40 42 42
16 14 13 12 10 8 6 5 4 4 5 4 5 4 4 3 4 5 4 9 14 21 23 18 13 13 8 7 8 17 17 9 9 18 8 6 14 9 14 28 33 35 37 36 39
16 13 11 10 9 9 7 6 4 4 4 4 4 4 6 9 8 4 1 2 9 14 22 20 17 18 11 5 12 15 4 5 10 3 1 12 4 9 28 26 30 33 32 32 34
16 12 9 9 10 10 8 6 4 3 3 3 2 3 6 5 13 11 7 4 4 6 9 8 11 23 10 9 8 3 1 2 6 7 4 8 7 12 26 27 23 31 36 32 34
16 12 7 7 9 9 7 6 4 2 1 0 2 3 5 7 15 13 12 11 8 10 16 20 19 17 7 5 2 3 4 7 6 16 4 7 4 16 20 21 23 29 36 37 37
16 10 4 5 6 6 6 7 6 3 2 4 4 5 4 3 8 8 15 11 12 13 13 18 13 3 2 4 6 5 4 6 6 2 11 17 14 17 25 27 29 31 34 39 42
14 6 2 3 3 5 6 8 6 3 8 7 4 9 14 1 7 8 8 12 12 9 5 13 3 7 15 10 10 7 6 6 6 11 13 15 19 18 31 30 29 29 31 36 45
12 5 1 1 2 6 9 9 8 6 9 18 16 20 14 11 3 5 9 8 7 6 5 6 7 17 7 11 9 9 4 6 8 9 7 15 8 12 12 13 28 34 36 38 41
12 3 1 2 4 7 9 6 12 15 3 8 10 10 9 8 7 10 12 10 5 3 7 6 14 8 5 4 6 5 3 3 3 14 11 15 2 6 12 9 19 24 38 38 42
12 4 2 3 4 6 9 15 9 12 5 6 3 6 11 9 6 16 18 9 3 10 6 8 7 8 1 3 5 5 5 6 3 5 6 14 4 7 7 14 16 26 37 40 42
12 5 4 7 6 8 10 10 12 4 4 4 5 4 5 9 3 11 20 12 9 9 5 9 7 5 3 3 3 9 5 5 3 1 5 4 5 6 5 12 16 27 31 42 47
12 6 6 8 10 5 9 11 8 6 4 3 7 5 2 5 3 17 14 15 6 3 2 11 6 4 4 3 2 4 7 6 5 5 2 5 6 4 7 16 8 10 22 37 43
11 7 7 8 4 6 12 12 5 4 5 4 6 4 5 3 3 6 8 5 4 2 5 9 7 6 3 3 6 10 7 4 6 5 6 3 4 8 9 7 7 8 8 28 41
10 9 11 10 5 7 10 5 4 5 5 1 2 2 6 4 6 5 4 3 2 3 2 2 8 3 4 5 5 2 6 5 2 2 4 3 2 4 5 9 8 6 14 24 30
9 10 11 1 4 4 1 4 5 3 5 5 9 1 5 7 7 5 7 5 5 7 6 5 5 8 4 3 6 3 3 4 6 4 5 4 5 5 9 3 11 20 29 24 10
11 11 9 6 5 4 4 5 4 5 4 7 4 2 8 5 3 1 1 2 2 2 7 2 4 3 9 5 5 5 2 5 5 2 2 5 1 3 5 5 6 14 20 23 18
9 6 2 8 10 3 2 6 6 17 0 3 1 2 2 2 3 4 2 2 4 3 11 2 4 8 5 5 4 5 4 6 5 3 4 1 4 4 7 7 9 11 16 15 18
7 2 8 2 3 1 3 5 6 17 2 4 6 5 3 4 4 4 3 1 3 4 3 3 5 1 8 6 3 4 4 5 5 5 0 5 4 4 2 7 12 16 16 19 28
17 6 5 8 2 4 8 6 4 5 2 2 3 4 2 4 5 1 4 6 7 4 4 2 2 3 10 8 9 7 6 2 4 3 1 4 5 5 6 4 9 19 18 18 29
8 4 6 8 7 2 6 6 8 16 5 2 2 5 6 6 3 4 8 2 5 5 6 6 3 6 5 7 4 7 7 3 5 3 3 5 4 6 8 8 6 11 21 18 17
9 3 6 4 7 7 2 3 7 6 3 5 2 3 1 3 6 5 7 5 7 3 4 4 1 2 5 6 1 3 6 8 2 5 3 8 6 6 9 10 10 9 19 19 17
7 7 10 10 12 8 6 6 9 14 3 3 5 3 7 5 4 1 2 3 1 4 5 5 2 2 5 7 7 4 7 8 6 4 1 4 7 5 17 17 18 12 4 17 12
11 6 5 7 7 4 2 7 9 13 3 7 4 4 5 5 5 2 4 5 6 4 2 1 2 3 6 5 5 6 5 5 4 3 6 6 1 5 16 22 22 22 31 23 14
Wind_Direction
336 332 328 322 314 307 302 296 294 287 280 278 285 294 306 313 315 317 14 145 145 152 148 115 108 90 90 27 1 34 29 280 263 152 174 134 149 168 164 138 150 178 166 162 158
337 333 329 325 319 312 304 296 294 291 283 276 278 289 302 314 322 345 140 154 178 167 165 128 105 87 74 345 56 59 6 341 325 175 161 143 142 142 131 156 74 135 156 157 161
338 335 332 328 324 318 309 297 291 288 286 279 276 283 300 327 353 79 125 174 200 178 168 139 135 128 156 168 83 60 341 323 316 333 163 167 159 146 129 169 180 148 150 161 165
341 340 339 337 334 324 317 300 288 286 286 287 273 271 287 337 149 106 101 169 185 177 180 151 165 153 268 123 165 142 206 282 307 311 300 188 177 137 155 169 173 167 159 162 163
344 344 344 343 342 334 325 310 294 287 285 287 267 255 257 225 218 207 201 171 183 188 196 180 184 186 210 174 141 173 213 144 299 309 346 126 95 107 107 135 145 149 155 163 168
348 349 349 351 353 347 343 332 312 297 286 282 265 233 201 228 174 164 213 193 200 194 200 210 231 246 237 225 176 187 196 97 285 296 319 92 127 92 133 140 143 154 165 170 174
348 349 349 352 349 346 345 336 318 301 282 277 260 232 230 228 141 197 228 244 223 213 211 233 259 240 274 181 137 145 161 225 199 205 261 0 288 132 146 147 149 160 171 175 183
347 344 343 346 348 352 350 341 328 315 291 285 260 238 245 150 206 241 227 233 235 228 279 295 269 271 269 134 121 201 240 325 194 168 184 53 18 121 147 152 164 162 175 185 191
343 337 333 346 355 4 8 11 358 330 319 147 194 234 254 183 195 202 217 230 271 285 291 291 280 266 245 181 125 331 201 240 288 185 115 96 64 153 166 167 173 173 177 188 196
340 331 314 346 354 2 5 3 355 346 160 147 244 303 240 219 221 237 220 227 246 269 284 273 274 243 74 101 249 163 241 264 270 119 136 95 122 126 191 193 189 187 186 189 193
345 335 294 342 341 355 347 346 325 282 246 240 266 261 292 195 176 211 186 218 240 261 245 289 27 273 272 205 239 184 193 228 254 118 131 137 148 163 194 194 191 197 198 195 197
350 348 281 331 297 316 333 333 355 332 306 305 278 266 280 273 250 197 188 190 193 239 18 353 273 261 267 276 210 170 123 251 297 150 87 127 156 196 231 197 201 196 202 204 207
351 349 249 259 279 305 310 326 343 328 316 299 243 259 254 204 205 202 194 207 196 262 265 183 255 303 231 280 29 323 189 230 164 68 77 119 201 237 258 280 238 230 212 208 205
349 333 254 251 291 314 3 18 355 316 49 282 240 256 234 238 280 224 204 195 196 218 236 240 288 291 157 3 98 326 200 241 141 113 168 220 235 246 243 244 232 249 220 211 212
342 322 266 241 274 317 350 350 343 292 28 220 213 218 214 175 145 187 199 198 233 254 78 261 293 315 13 223 171 237 295 281 249 142 116 219 119 277 147 247 246 239 218 214 212
332 312 279 272 276 338 338 327 319 49 269 254 177 192 124 222 250 192 198 223 256 248 221 247 266 229 219 265 223 298 333 1 48 110 14 220 127 259 187 219 217 205 228 213 211
324 305 286 277 280 301 316 332 44 124 297 196 199 172 194 238 235 176 187 207 187 53 300 313 275 296 192 345 346 53 43 351 1 16 217 101 62 222 219 224 222 246 271 216 208
317 302 293 290 283 294 324 45 52 257 264 45 146 115 189 170 236 237 126 262 196 136 48 24 342 202 217 169 195 66 132 143 290 307 272 23 214 269 219 214 259 254 64 47 215
317 299 300 131 177 203 338 34 218 304 306 17 357 90 221 213 176 139 194 211 246 170 151 42 317 326 324 232 112 310 1 187 109 333 55 292 323 350 25 85 60 61 45 29 43
335 307 270 206 213 190 73 235 255 239 271 48 54 71 9 305 43 95 78 343 96 32 103 334 25 325 304 23 334 131 233 29 14 47 24 306 326 240 78 64 52 66 61 35 29
347 322 123 194 212 192 170 237 285 302 100 98 259 30 13 4 30 24 17 349 36 29 79 127 93 298 22 2 308 356 354 44 108 107 155 236 280 244 182 139 94 99 85 73 88
18 352 107 25 130 156 186 230 280 281 332 348 58 52 47 41 46 51 51 92 38 56 43 333 133 170 251 264 291 132 8 111 110 297 155 157 266 287 231 146 126 118 118 122 126
339 293 323 313 196 315 310 299 291 303 150 113 72 62 77 34 16 131 170 179 133 105 162 288 16 22 347 351 8 43 338 33 115 85 160 79 263 282 263 231 158 134 137 140 146
354 356 334 48 78 69 1 307 327 359 347 87 119 77 35 355 45 325 13 336 108 127 133 100 91 143 184 222 228 328 325 10 107 62 181 204 245 270 251 246 226 174 158 145 155
11 357 12 324 334 337 275 289 318 340 342 331 10 71 297 29 19 31 2 27 12 34 34 80 102 163 246 233 324 301 327 323 346 228 180 253 219 311 268 222 217 203 156 161 163
18 3 346 306 307 341 2 2 6 340 1 3 63 7 98 122 143 269 29 27 159 21 357 2 264 71 325 318 357 316 301 315 328 273 30 22 63 316 52 68 36 17 138 167 160
5 338 329 304 337 18 39 324 344 349 306 58 59 61 80 160 144 23 329 285 233 207 241 130 99 49 288 309 356 333 256 274 270 290 151 77 151 278 56 57 51 58 78 92 123